Voltar ao catálogo

FENGYUN 1C DEB

AtivoSSO
NORAD 29817·DEBRIS·🇨🇳 China

Lançado May 10, 1999 de Taiyuan Satellite Launch Center

Loading…

Próximas Passagens (próximas 24 horas)

TLE

AtualizadoSource: Space-Track

Época: Sep 14, 2026, 09:59 UTC

1 29817U 99025DK  26257.41611713  .00000360  00000-0  20924-3 0  9997
2 29817  98.5815 240.5212 0011146 308.1978 206.6302 14.14576904 12902

Acompanhe FENGYUN 1C DEB em tempo real com AllMySat

Download on the App Store